Flag for Canada Weather past 2 weeks in Dieppe, New Brunswick, Canada

Now
43 °F

Sprinkles. Partly sunny.


Feels Like: 39 °F
Forecast: 34 / 51 °F
Wind: 7 mph from Northwest

Location: Moncton


UV Index: 3 (Moderate)

Visibility: 15 mi


Pressure: 30.06 "Hg

Humidity: 66%

Dew point: 32 °F

Location of DieppeLocation

Historic Weather in Dieppe

°F

Dieppe temperature yesterday

Maximum temperature yesterday: 46 °F (at 2:00 PM)
Minimum temperature yesterday: 23 °F (at 4:00 AM)
Average temperature yesterday: 35 °F

Past Weeks' High & Low Weather Summary

 TemperatureHumidityPressure
High66 °F (Apr 15, 5:00 PM)100% (Apr 9, 12:00 AM)30.84 "Hg (Apr 9, 12:00 AM)
Low19 °F (Apr 17, 6:00 AM)23% (Apr 17, 4:00 PM)29.21 "Hg (Apr 9, 4:00 AM)
Average40 °F65%30.00 "Hg
* Reported Apr 4 7:00 PM — Apr 19 7:00 PM, Dieppe, Weather by CustomWeather, © 2014

Note: Actual official high and low records may vary slightly from our data, if they occured in-between our weather recording intervals... More about our weather records

Advertising

Historic Weather Conditions — Data for Previous 24 hours

 ConditionsComfort  
Time TempWeatherWind HumidityBarometerVisibility
7:00 PM
Apr 19
43 °FSprinkles. Mostly cloudy.9 mph66%30.04 "Hg15 mi
6:00 PM45 °FOvercast.12 mph57%30.02 "Hg15 mi
5:00 PM45 °FOvercast.7 mph61%30.00 "Hg15 mi
4:00 PM45 °FMostly cloudy.8 mph57%30.00 "Hg15 mi
3:00 PM45 °FMostly cloudy.17 mph57%29.99 "Hg15 mi
2:00 PM45 °FMore clouds than sun.14 mph57%30.00 "Hg15 mi
1:00 PM41 °FSprinkles. Mostly cloudy.9 mph66%30.01 "Hg15 mi
12:00 PM43 °FMostly cloudy.12 mph57%30.03 "Hg15 mi
11:00 AM39 °FBroken clouds.12 mph65%30.03 "Hg15 mi
10:00 AM37 °FMore clouds than sun.12 mph70%30.05 "Hg15 mi
9:00 AM36 °FBroken clouds.13 mph75%30.06 "Hg15 mi
8:00 AM32 °FPartly sunny.9 mph80%30.07 "Hg15 mi
7:00 AM30 °FPassing clouds.9 mph80%30.09 "Hg15 mi
6:00 AM30 °FMostly cloudy.7 mph75%30.09 "Hg15 mi
5:00 AM30 °FOvercast.5 mph75%30.12 "Hg15 mi
4:00 AM32 °FPassing clouds.7 mph69%30.14 "Hg15 mi
3:00 AM32 °FOvercast.6 mph69%30.17 "Hg15 mi
2:00 AM34 °FOvercast.7 mph65%30.19 "Hg15 mi
1:00 AM36 °FOvercast.6 mph56%30.20 "Hg15 mi
12:00 AM34 °FOvercast.8 mph60%30.22 "Hg15 mi
11:00 PM
Apr 18
34 °FPassing clouds.5 mph56%30.25 "Hg15 mi
10:00 PM34 °FPassing clouds.6 mph56%30.28 "Hg15 mi
9:00 PM36 °FPartly sunny.10 mph52%30.30 "Hg15 mi
Weather by CustomWeather, © 2014

See weather overview